Weather reports worldwide

Advertisment
Wilkes-Barre/Scrant PA, United States of America (72513): temperature & dewpoint: 23.07.2017 07:00:00 - 29.07.2017 07:00:00 (EDT)Wilkes-Barre/Scrant PA, United States of America (72513): wind speed: 23.07.2017 07:00:00 - 29.07.2017 07:00:00 (EDT)Wilkes-Barre/Scrant PA, United States of America (72513): wind direction: 23.07.2017 07:00:00 - 29.07.2017 07:00:00 (EDT)Wilkes-Barre/Scrant PA, United States of America (72513): reduced air pressure: 23.07.2017 07:00:00 - 29.07.2017 07:00:00 (EDT)Wilkes-Barre/Scrant PA, United States of America (72513): visibility: 23.07.2017 07:00:00 - 29.07.2017 07:00:00 (EDT)Wilkes-Barre/Scrant PA, United States of America (72513): precipitation: 23.07.2017 07:00:00 - 29.07.2017 07:00:00 (EDT)
Date & Time tt [°C] td [°C] ff [km/h] ff [kn] dd ppp [hPa] vv [km] rr [mm]
29.07.2017 07:00:00 18,3 13,3 8 4 NE 1010,3 16 -
29.07.2017 06:00:00 18,3 13,9 15 8 NE 1009,8 16 -
29.07.2017 05:00:00 18,9 14,4 13 7 NNE 1009,3 10 0,0
29.07.2017 04:00:00 19,4 14,4 11 6 NE 1009,0 16 -
29.07.2017 03:00:00 20,0 14,4 11 6 NNE 1009,3 16 -
29.07.2017 02:00:00 20,6 14,4 15 8 NNE 1009,6 16 0,0
29.07.2017 01:00:00 21,1 15,0 11 6 NE 1009,8 16 -
29.07.2017 00:00:00 21,7 15,6 13 7 N 1010,6 16 -
28.07.2017 23:00:00 22,2 15,6 16 9 NE 1010,1 16 0,0
28.07.2017 22:00:00 22,8 16,1 13 7 NNE 1010,2 16 -
28.07.2017 21:00:00 23,3 16,7 15 8 N 1010,0 16 -
28.07.2017 20:00:00 23,9 17,2 15 8 NNE 1009,6 16 0,0
28.07.2017 19:00:00 25,0 16,7 13 7 N 1009,2 16 -
28.07.2017 18:00:00 25,0 18,3 0 0 N 1009,1 16 -
28.07.2017 17:00:00 27,2 17,2 15 8 N 1009,2 16 0,0
28.07.2017 16:00:00 27,8 16,7 13 7 NNE 1009,4 16 -
28.07.2017 15:00:00 27,2 17,2 13 7 N 1009,9 16 -
28.07.2017 14:00:00 27,2 16,7 5 3 NW 1010,4 16 0,0
28.07.2017 13:00:00 27,2 17,2 13 7 N 1010,9 16 -
28.07.2017 12:00:00 26,1 17,2 8 4 - 1011,3 16 -
28.07.2017 11:00:00 25,6 18,3 11 6 NNE 1011,5 16 0,0
28.07.2017 10:00:00 23,9 18,3 9 5 N 1011,5 15 -
28.07.2017 09:00:00 21,7 18,9 5 3 NNW 1011,9 11 -
28.07.2017 08:00:00 20,0 18,3 0 0 N 1012,1 11 0,0
28.07.2017 07:00:00 18,9 17,2 8 4 E 1011,8 10 -
28.07.2017 06:00:00 18,3 17,2 5 3 E 1011,5 11 -
28.07.2017 05:00:00 18,3 17,2 0 0 N 1011,5 10 0,0
28.07.2017 04:00:00 18,9 17,8 8 4 E 1011,0 11 -
28.07.2017 03:00:00 18,9 18,3 8 4 E 1011,2 11 -
28.07.2017 02:00:00 19,4 18,3 8 4 E 1011,5 11 0,0
28.07.2017 01:00:00 20,0 18,9 8 4 E 1011,6 10 -
28.07.2017 00:00:00 20,0 18,9 8 4 ESE 1011,6 11 -
27.07.2017 23:00:00 20,6 19,4 0 0 N 1011,8 10 0,0
27.07.2017 22:00:00 22,2 19,4 0 0 N 1011,9 13 -
27.07.2017 21:00:00 - - - - - - - -
27.07.2017 20:00:00 23,9 18,3 5 3 SSW 1011,8 13 0,0
27.07.2017 19:00:00 25,0 17,8 0 0 N 1011,6 15 -
27.07.2017 18:00:00 26,1 18,3 5 3 NW 1012,0 15 -
27.07.2017 17:00:00 25,6 18,3 5 3 S 1012,4 15 0,0
27.07.2017 16:00:00 25,6 17,8 0 0 N 1012,7 15 -
27.07.2017 15:00:00 25,0 18,9 13 7 SW 1013,6 13 -
27.07.2017 14:00:00 25,0 20,0 15 8 W 1013,9 13 0,0
27.07.2017 13:00:00 23,3 19,4 15 8 WSW 1014,1 13 -
27.07.2017 12:00:00 23,3 19,4 8 4 WSW 1014,8 13 0,0
27.07.2017 11:00:00 22,2 19,4 13 7 WSW 1015,4 13 0,0
27.07.2017 10:00:00 21,7 18,9 9 5 WSW 1015,7 11 -
27.07.2017 09:00:00 21,1 18,3 9 5 WSW 1016,3 11 -
27.07.2017 08:00:00 20,0 17,8 8 4 SSW 1016,6 11 0,0
27.07.2017 07:00:00 20,0 17,8 8 4 SSW 1016,7 11 -
27.07.2017 06:00:00 20,0 17,2 0 0 N 1016,9 15 -
27.07.2017 05:00:00 19,4 17,2 9 5 SSW 1016,6 10 0,0
27.07.2017 04:00:00 19,4 17,2 8 4 SSW 1016,6 15 -
27.07.2017 03:00:00 19,4 17,2 5 3 - 1016,6 15 -
27.07.2017 02:00:00 20,0 16,7 9 5 SSW 1018,3 16 0,0
27.07.2017 01:00:00 20,0 16,7 8 4 - 1018,7 16 -
27.07.2017 00:00:00 20,6 16,7 0 0 N 1018,9 16 -
26.07.2017 23:00:00 20,6 16,7 0 0 N 1019,3 16 0,0
26.07.2017 22:00:00 21,1 16,7 0 0 N 1019,5 16 -
26.07.2017 21:00:00 21,7 16,7 11 6 - 1019,0 16 -
26.07.2017 20:00:00 22,2 16,7 8 4 - 1019,3 16 0,0
26.07.2017 19:00:00 23,9 16,1 8 4 - 1019,4 16 -
26.07.2017 18:00:00 23,9 16,1 9 5 S 1019,5 16 -
26.07.2017 17:00:00 23,9 15,6 8 4 - 1020,1 16 0,0
26.07.2017 16:00:00 23,3 15,6 13 7 W 1021,1 16 -
26.07.2017 15:00:00 24,4 15,6 9 5 - 1021,5 16 -
26.07.2017 14:00:00 21,7 16,1 11 6 - 1022,4 16 0,0
26.07.2017 13:00:00 21,1 16,1 5 3 - 1022,8 16 -
26.07.2017 12:00:00 21,1 15,6 8 4 - 1022,9 16 -
26.07.2017 11:00:00 20,0 15,6 0 0 N 1023,8 16 0,0
26.07.2017 10:00:00 18,9 15,6 9 5 E 1023,8 16 -
26.07.2017 09:00:00 18,3 15,0 5 3 SE 1024,5 16 -
26.07.2017 08:00:00 17,8 16,1 0 0 N 1024,6 16 0,0
26.07.2017 07:00:00 17,2 16,1 0 0 N 1023,8 15 -
26.07.2017 06:00:00 16,7 16,1 0 0 N 1023,4 6 -
26.07.2017 05:00:00 16,7 15,6 5 3 - 1023,5 10 0,0
26.07.2017 04:00:00 17,2 15,0 0 0 N 1023,2 16 -
26.07.2017 03:00:00 17,2 15,6 0 0 N 1023,1 16 -
26.07.2017 02:00:00 17,8 15,0 0 0 N 1023,6 16 0,0
26.07.2017 01:00:00 17,8 14,4 8 4 WNW 1023,8 16 -
26.07.2017 00:00:00 18,3 15,0 8 4 N 1023,3 16 -
25.07.2017 23:00:00 18,3 15,0 9 5 N 1023,3 16 0,0
25.07.2017 22:00:00 18,9 15,0 11 6 N 1023,0 16 -
25.07.2017 21:00:00 19,4 15,6 11 6 NNW 1022,2 16 -
25.07.2017 20:00:00 20,0 15,6 5 3 N 1021,7 16 -
25.07.2017 19:00:00 20,6 15,0 16 9 NNW 1021,1 16 -
25.07.2017 18:00:00 21,1 15,6 0 0 N 1020,4 16 -
25.07.2017 17:00:00 22,2 16,1 8 4 - 1020,3 16 -
25.07.2017 16:00:00 18,9 15,6 0 0 N 1020,7 16 0,0
25.07.2017 15:00:00 18,3 16,1 11 6 N 1020,6 15 0,3
25.07.2017 14:00:00 19,4 16,7 0 0 N 1020,0 16 0,5
25.07.2017 13:00:00 20,0 16,1 5 3 S 1019,0 16 -
25.07.2017 12:00:00 20,0 16,1 8 4 NW 1018,8 16 -
25.07.2017 11:00:00 19,4 16,7 8 4 NNW 1018,3 10 0,0
25.07.2017 10:00:00 18,3 16,7 8 4 - 1018,1 11 0,0
25.07.2017 09:00:00 18,3 16,1 18 10 N 1017,7 16 0,3
25.07.2017 08:00:00 17,8 17,2 8 4 WNW 1017,0 10 0,3
25.07.2017 07:00:00 19,4 17,2 0 0 N 1016,1 16 -
25.07.2017 06:00:00 18,9 17,8 0 0 N 1015,2 16 -
25.07.2017 05:00:00 18,9 17,8 5 3 NNW 1014,4 10 0,0
25.07.2017 04:00:00 19,4 17,2 0 0 N 1013,7 16 -
25.07.2017 03:00:00 19,4 17,2 0 0 N 1013,6 16 -
25.07.2017 02:00:00 20,6 16,1 8 4 NW 1013,5 16 0,0
25.07.2017 01:00:00 20,6 17,8 9 5 NW 1013,2 16 -
25.07.2017 00:00:00 21,7 18,3 8 4 W 1012,7 16 -
24.07.2017 23:00:00 20,6 18,3 0 0 N 1012,3 16 0,0
24.07.2017 22:00:00 20,6 18,9 0 0 N 1011,2 16 -
24.07.2017 21:00:00 20,6 18,9 8 4 - 1010,3 16 -
24.07.2017 20:00:00 21,1 18,9 8 4 ESE 1009,8 16 -
24.07.2017 19:00:00 21,1 18,9 13 7 ENE 1010,0 16 -
24.07.2017 18:00:00 21,1 18,9 9 5 E 1010,1 16 6,9
24.07.2017 17:00:00 26,7 18,3 24 13 ENE 1008,6 16 0,0
24.07.2017 16:00:00 27,2 18,9 11 6 SW 1007,5 16 -
24.07.2017 15:00:00 26,7 18,3 5 3 - 1008,1 16 -
24.07.2017 14:00:00 26,1 18,9 0 0 N 1008,6 16 -
24.07.2017 13:00:00 24,4 17,8 8 4 - 1009,3 16 -
24.07.2017 12:00:00 22,2 17,8 5 3 - 1009,6 16 -
24.07.2017 11:00:00 21,7 17,2 0 0 N 1009,5 16 -
24.07.2017 10:00:00 20,6 17,8 5 3 - 1009,2 16 -
24.07.2017 09:00:00 20,6 18,9 9 5 NE 1008,4 16 0,8
24.07.2017 08:00:00 19,4 18,9 8 4 ESE 1007,9 10 1,8
24.07.2017 07:00:00 19,4 17,8 8 4 E 1008,0 6 0,8
24.07.2017 06:00:00 18,9 18,3 0 0 N 1008,0 6 6,9
24.07.2017 05:00:00 18,9 18,3 5 3 ENE 1008,1 4,8 3,3
24.07.2017 04:00:00 19,4 18,9 9 5 - 1008,2 2,8 9,4
24.07.2017 03:00:00 20,0 18,9 15 8 NE 1008,0 4,8 1,3
24.07.2017 02:00:00 21,1 18,9 5 3 NNE 1009,1 11 0,3
24.07.2017 01:00:00 21,1 18,9 5 3 - 1009,1 15 0,0
24.07.2017 00:00:00 21,7 18,3 5 3 SE 1008,9 13 0,0
23.07.2017 23:00:00 22,8 18,3 0 0 N 1008,8 15 -
23.07.2017 22:00:00 23,3 18,3 15 8 SE 1008,1 15 0,0
23.07.2017 21:00:00 23,9 19,4 15 8 SE 1008,2 13 -
23.07.2017 20:00:00 25,0 19,4 13 7 SE 1007,8 11 -
23.07.2017 19:00:00 25,6 20,0 8 4 - 1007,9 11 -
23.07.2017 18:00:00 25,6 19,4 13 7 SE 1007,8 10 -
23.07.2017 17:00:00 26,1 19,4 15 8 ESE 1008,0 11 -
23.07.2017 16:00:00 26,1 18,9 9 5 S 1008,2 13 0,0
23.07.2017 15:00:00 25,0 18,3 0 0 N 1008,9 11 -
23.07.2017 14:00:00 25,6 17,8 0 0 N 1009,3 13 0,0
23.07.2017 13:00:00 26,1 17,8 5 3 - 1009,4 13 -
23.07.2017 12:00:00 24,4 17,2 5 3 - 1009,5 13 -
23.07.2017 11:00:00 24,4 18,3 0 0 N 1009,1 13 0,0
23.07.2017 10:00:00 24,4 19,4 5 3 - 1009,0 13 -
23.07.2017 09:00:00 22,8 20,0 0 0 N 1009,2 11 -
23.07.2017 08:00:00 22,2 20,0 0 0 N 1008,9 11 0,0
23.07.2017 07:00:00 21,7 19,4 0 0 N 1008,1 11 -

tt = temperature
td = dewpoint
ff = wind speed
dd = wind direction
ppp = reduced air pressure
vv = visibility
rr = precipitation

Next stations